[[{"header":{"parameterUnit":"m.s-1","parameterCategory":1,"la1":30.2991,"la2":30.254,"lo1":-89.0895,"lo2":-89.0444,"dy":0.0017,"dx":0.0017,"nx":28,"ny":28,"refTime":"2023-11-14T03:00:00:Z","depth":0,"parameterNumber":2,"parameterNumberName":"U-component_of_WINDS"},"data":[0,0,0,0,0,0,0,0,0,0,0,0,0,0,0,0,0,0,0,0,0,0,0,0,0,0,0,0,0,0,0,0,0,0,0,0,0,0,0,0,0,0,0,0,0,0,0,0,0,0,0,0,0,0,0,0,0,0,-4.9792,-4.9791,0,-4.9776,-4.9776,-4.9776,-4.9646,-4.9643,-4.964,-4.9637,-4.9624,-4.9627,-4.9629,0,0,0,0,0,0,0,0,0,0,0,0,0,-4.971,-4.9712,-4.9792,-4.9791,-4.9791,-4.9777,-4.9776,-4.9776,-4.9647,-4.9643,-4.9639,-4.9635,-4.9623,-4.9626,-4.9629,0,0,0,0,0,0,0,0,0,0,0,0,0,-4.9726,-4.9713,-4.9792,-4.9725,-4.9719,-4.9777,-4.9776,-4.9776,-4.9648,-4.9643,-4.9638,-4.9634,-4.9622,-4.9626,-4.963,-4.9751,0,0,-4.9642,-4.9644,0,0,0,0,0,0,0,0,-4.9725,-4.9729,-4.9735,-4.973,-4.9723,-4.9708,-4.9743,-4.9768,-4.9649,-4.9675,-4.9637,-4.9631,-4.9656,-4.9657,-4.9665,-4.9751,-4.975,-4.9642,-4.9645,-4.9647,-4.9648,0,0,0,0,0,0,0,-4.9724,-4.9729,-4.9786,-4.9735,-4.9728,-4.9696,-4.9693,-4.9747,-4.9693,-4.9672,-4.9663,-4.9663,-4.9652,-4.9661,-4.9664,-4.975,-4.9642,-4.9646,-4.9648,-4.965,-4.9935,-4.994,0,0,0,0,0,0,-4.9732,-4.9729,-4.9786,-4.9785,-4.9712,-4.9702,-4.9698,-4.9718,-4.9692,-4.9683,-4.9667,-4.9657,-4.9657,-4.9659,-4.9663,-4.9803,-4.9647,-4.965,-4.9653,-4.993,-4.9936,-4.9941,0,0,0,0,0,0,-4.9731,-4.9738,-4.9787,-4.9754,-4.9758,-4.9708,-4.9732,-4.972,-4.9729,-4.9688,-4.9678,-4.9686,-4.9653,-4.9657,-4.973,-4.9801,-4.9652,-4.9656,-4.9924,-4.9932,-4.9939,-5.0086,0,0,0,0,0,0,-4.9729,-4.9739,-4.9784,-4.9756,-4.976,-4.9854,-4.9736,-4.9723,-4.9736,-4.9723,-4.9703,-4.9695,-4.965,-4.9725,-4.9734,-4.9804,-4.9659,-4.9917,-4.9927,-4.9936,-5.0075,-5.0098,-5.0118,0,0,0,0,0,-4.9726,-4.9827,-4.9787,-4.9795,-4.9816,-4.9859,-4.9861,-4.9806,-4.9743,-4.9788,-4.9761,-4.9696,-4.9792,-4.9733,-4.9743,-4.9815,-4.9912,-4.9924,-4.9936,-5.0065,-5.0094,-5.0118,0,0,0,0,0,0,-4.9865,-4.9822,-4.9777,-4.9871,-4.987,-4.9837,-4.9892,-4.9837,-4.9854,-4.9841,-4.9772,-4.9769,-4.9853,-4.984,-4.9776,-4.9931,-4.9841,-4.9855,-4.9936,-4.9963,-4.9984,-4.9986,-4.9662,0,0,0,0,0,-4.9906,-4.9944,-4.9904,-4.9991,-4.9992,-4.9943,-4.9959,-4.9917,-4.9913,-4.9911,-4.989,-4.9889,-4.9918,-4.994,-4.9965,-5.0072,-5.0066,-5.0126,-5.0148,-5.0166,-5.0179,-5.0236,-5.0262,-4.998,-4.998,-4.9979,0,0,-4.9992,-4.9973,-5.0001,-5.0018,-5.0012,-5.0054,-4.9943,-4.9992,-5.0022,-4.9919,-4.9987,-4.9971,-4.9965,-5.0056,-5.0095,-5.0049,-5.0256,-5.0181,-5.0195,-5.0199,-5.0251,-5.0277,-5.0301,-4.9988,-4.9986,-4.9985,0,0,-5.017,-5.0159,-5.0231,-5.0226,-5.0218,-5.0184,-5.0201,-5.0177,-5.0162,-5.0229,-5.0152,-5.0187,-5.024,-5.0239,-5.0246,-5.0423,-5.0365,-5.0433,-5.0547,-5.0603,-5.0625,-5.0645,-5.0709,-5.0733,-5.0447,-5.0447,-5.0447,0,-5.0279,-5.0337,-5.0274,-5.0328,-5.0338,-5.0245,-5.0318,-5.0317,-5.0318,-5.0327,-5.0274,-5.0338,-5.0328,-5.0418,-5.0461,-5.0469,-5.0488,-5.0436,-5.0627,-5.0646,-5.0663,-5.0724,-5.0748,-5.0455,-5.0454,-5.0454,-5.0453,0,-5.0472,-5.0513,-5.0572,-5.0574,-5.0591,-5.0654,-5.0601,-5.0625,-5.0581,-5.0553,-5.0622,-5.0606,-5.0627,-5.0644,-5.0602,-5.0729,-5.07,-5.0639,-5.0547,-5.0699,-5.0755,-5.0778,-5.0468,-5.0465,-5.0462,-5.046,0,0,-5.0738,-5.0704,-5.0726,-5.0726,-5.071,-5.0741,-5.08,-5.0819,-5.0842,-5.0845,-5.0893,-5.0939,-5.0882,-5.089,-5.0846,-5.0895,-5.1038,-5.0827,-5.0826,-5.0868,-5.1178,-5.1225,-5.1253,-5.0998,-5.1002,-5.1006,-5.1179,0,-5.091,-5.1008,-5.0953,-5.1059,-5.1097,-5.1009,-5.106,-5.1056,-5.1032,-5.1061,-5.1033,-5.1068,-5.0989,-5.0993,-5.1038,-5.1011,-5.11,-5.0998,-5.1044,-5.1046,-5.1049,-5.1282,-5.1333,-5.1497,-5.12,-5.1204,-5.1206,0,-5.1125,-5.1136,-5.1246,-5.1222,-5.1236,-5.1283,-5.1296,-5.1325,-5.1319,-5.1297,-5.1306,-5.125,-5.1307,-5.1215,-5.1292,-5.1224,-5.1239,-5.123,-5.1234,-5.1238,-5.1137,-5.1293,-5.1548,-5.1573,-5.124,-5.1237,-5.1235,0,-5.131,-5.1353,-5.1424,-5.1426,-5.14,-5.1435,-5.1426,-5.1414,-5.1429,-5.1441,-5.145,-5.1469,-5.1479,-5.1495,-5.1446,-5.1384,-5.1531,-5.1435,-5.1516,-5.1518,-5.1552,-5.1551,-5.1814,-5.156,-5.156,-5.1559,-5.1559,0,-5.1509,-5.158,-5.1506,-5.1551,-5.1628,-5.1563,-5.1641,-5.1623,-5.1613,-5.1653,-5.1578,-5.1617,-5.1549,-5.1581,-5.1544,-5.1614,-5.1619,-5.1604,-5.1594,-5.1612,-5.1614,-5.1622,-5.161,-5.1566,-5.1564,-5.1563,-5.1562,0,-5.1729,-5.1683,-5.1755,-5.1723,-5.1717,-5.1775,-5.1749,-5.1789,-5.1758,-5.1809,-5.1817,-5.177,-5.1804,-5.1757,-5.1786,-5.1761,-5.1858,-5.1829,-5.186,-5.1853,-5.1937,-5.193,-5.2216,-5.225,-5.1973,-5.1976,-5.1978,0,-5.186,-5.1912,-5.1886,-5.1907,-5.1902,-5.1936,-5.195,-5.1889,-5.1908,-5.1904,-5.1945,-5.1972,-5.1991,-5.205,-5.2019,-5.2041,-5.2013,-5.2112,-5.2016,-5.2033,-5.2016,-5.2015,-5.202,-5.2132,-5.2135,-5.2138,-5.214,0,-5.2098,-5.2072,-5.2095,-5.2112,-5.2131,-5.2141,-5.2145,-5.2166,-5.2102,-5.2127,-5.216,-5.2175,-5.2204,-5.2233,-5.2247,-5.2238,-5.218,-5.217,-5.219,-5.221,-5.2227,-5.222,-5.1915,-5.2164,-5.2162,-5.216,-5.2159,-5.2158,-5.2278,-5.2321,-5.2309,-5.2338,-5.2334,-5.234,-5.2376,-5.2349,-5.2376,-5.2395,-5.2357,-5.24,-5.2392,-5.2404,-5.2402,-5.2435,-5.2393,-5.2422,-5.2429,-5.2438,-5.2452,-5.222,-5.2438,-5.2437,-5.2436,-5.2435,-5.2435,0,-5.2513,-5.2501,-5.2528,-5.2536,-5.2559,-5.25,-5.2501,-5.2525,-5.2563,-5.256,-5.258,-5.2619,-5.2646,-5.2617,-5.2639,-5.2672,-5.2645,-5.268,-5.2677,-5.2677,-5.2488,-5.2469,-5.27,-5.27,-5.27,-5.27,-5.27,-5.27,-5.2638,-5.2707,-5.268,-5.2747,-5.2734,-5.2775,-5.2781,-5.2786,-5.2783,-5.283,-5.2852,-5.2832,-5.2819,-5.2839,-5.2862,-5.2853,-5.2865,-5.2909,-5.2891,-5.2716,-5.269,-5.2665,-5.2647,-5.2912,-5.2912,-5.3077,-5.3078,-5.3079]},{"header":{"parameterUnit":"m.s-1","parameterCategory":1,"la1":30.2991,"la2":30.254,"lo1":-89.0895,"lo2":-89.0444,"dy":0.0017,"dx":0.0017,"nx":28,"ny":28,"refTime":"2023-11-14T03:00:00:Z","depth":0,"parameterNumber":3,"parameterNumberName":"V-component_of_WINDS"},"data":[0,0,0,0,0,0,0,0,0,0,0,0,0,0,0,0,0,0,0,0,0,0,0,0,0,0,0,0,0,0,0,0,0,0,0,0,0,0,0,0,0,0,0,0,0,0,0,0,0,0,0,0,0,0,0,0,0,0,-4.6377,-4.6377,0,-4.6397,-4.6397,-4.6397,-4.6304,-4.6301,-4.6298,-4.6296,-4.6315,-4.6318,-4.6321,0,0,0,0,0,0,0,0,0,0,0,0,0,-4.6257,-4.6259,-4.6377,-4.6377,-4.6378,-4.6397,-4.6397,-4.6397,-4.6304,-4.6301,-4.6298,-4.6295,-4.6314,-4.6318,-4.6321,0,0,0,0,0,0,0,0,0,0,0,0,0,-4.6296,-4.626,-4.6377,-4.6334,-4.633,-4.6397,-4.6397,-4.6397,-4.6305,-4.6301,-4.6297,-4.6293,-4.6313,-4.6317,-4.6322,-4.6431,0,0,-4.6336,-4.6338,0,0,0,0,0,0,0,0,-4.6294,-4.6301,-4.634,-4.6337,-4.6333,-4.6344,-4.6361,-4.6409,-4.6306,-4.6314,-4.6296,-4.6291,-4.6328,-4.6331,-4.6344,-4.6432,-4.6433,-4.6336,-4.6339,-4.6341,-4.6342,0,0,0,0,0,0,0,-4.6291,-4.6299,-4.6385,-4.634,-4.6336,-4.6312,-4.6313,-4.637,-4.6344,-4.6313,-4.6307,-4.631,-4.6325,-4.6339,-4.6343,-4.6433,-4.6336,-4.634,-4.6343,-4.6345,-4.6611,-4.6615,0,0,0,0,0,0,-4.6295,-4.6298,-4.6384,-4.6385,-4.6303,-4.6318,-4.6319,-4.6344,-4.6343,-4.6339,-4.6314,-4.6306,-4.6334,-4.6338,-4.6344,-4.6471,-4.6341,-4.6345,-4.6348,-4.6606,-4.6612,-4.6616,0,0,0,0,0,0,-4.6292,-4.6303,-4.6383,-4.634,-4.6348,-4.6324,-4.6353,-4.6347,-4.6361,-4.6343,-4.6338,-4.6333,-4.6331,-4.6337,-4.641,-4.647,-4.6347,-4.6351,-4.6601,-4.6608,-4.6614,-4.6726,0,0,0,0,0,0,-4.6289,-4.6303,-4.6345,-4.6341,-4.6351,-4.645,-4.6357,-4.635,-4.6369,-4.6359,-4.636,-4.6356,-4.6328,-4.6404,-4.6414,-4.6474,-4.6355,-4.6596,-4.6604,-4.6612,-4.6717,-4.6736,-4.6752,0,0,0,0,0,-4.6285,-4.6376,-4.6348,-4.6359,-4.6403,-4.6454,-4.6459,-4.6425,-4.6374,-4.6416,-4.6404,-4.6356,-4.6462,-4.6412,-4.6423,-4.6485,-4.6592,-4.6602,-4.6611,-4.6709,-4.6732,-4.6751,0,0,0,0,0,0,-4.6388,-4.6375,-4.6343,-4.6436,-4.6447,-4.6438,-4.649,-4.6451,-4.6476,-4.6466,-4.6422,-4.6423,-4.6503,-4.6501,-4.6446,-4.659,-4.6518,-4.653,-4.6588,-4.661,-4.6627,-4.6626,-4.6359,0,0,0,0,0,-4.6421,-4.6464,-4.645,-4.6533,-4.654,-4.6514,-4.6535,-4.6508,-4.6517,-4.6521,-4.6515,-4.6526,-4.6561,-4.6585,-4.6617,-4.6716,-4.6714,-4.6764,-4.6782,-4.6796,-4.6807,-4.6859,-4.688,-4.6648,-4.6648,-4.6648,0,0,-4.649,-4.6488,-4.6518,-4.6553,-4.6559,-4.6604,-4.6519,-4.657,-4.6603,-4.6529,-4.6597,-4.6593,-4.6602,-4.6688,-4.6726,-4.6689,-4.6871,-4.6808,-4.682,-4.6824,-4.6871,-4.6893,-4.6912,-4.6655,-4.6654,-4.6653,0,0,-4.6639,-4.6643,-4.6711,-4.6718,-4.6727,-4.6709,-4.6726,-4.6723,-4.6717,-4.6785,-4.673,-4.6768,-4.683,-4.6838,-4.685,-4.7001,-4.6957,-4.7012,-4.7103,-4.7154,-4.7172,-4.7188,-4.7241,-4.7261,-4.7024,-4.7024,-4.7024,0,-4.6724,-4.679,-4.6751,-4.6806,-4.6823,-4.6758,-4.6826,-4.6835,-4.6854,-4.6866,-4.6825,-4.69,-4.6902,-4.6989,-4.7025,-4.7038,-4.7055,-4.7012,-4.7172,-4.7188,-4.7202,-4.7252,-4.7273,-4.703,-4.703,-4.7029,-4.7028,0,-4.6893,-4.694,-4.6994,-4.7014,-4.7036,-4.7098,-4.7068,-4.7095,-4.7065,-4.7051,-4.712,-4.7119,-4.7149,-4.7168,-4.7139,-4.725,-4.7227,-4.718,-4.7106,-4.7232,-4.7278,-4.7297,-4.704,-4.7038,-4.7036,-4.7034,0,0,-4.7109,-4.7105,-4.7126,-4.7133,-4.7138,-4.7172,-4.723,-4.7259,-4.7283,-4.7298,-4.7345,-4.7398,-4.7354,-4.7368,-4.734,-4.7384,-4.7503,-4.7331,-4.7331,-4.7363,-4.7624,-4.7659,-4.7682,-4.7474,-4.7477,-4.748,-4.7623,0,-4.7254,-4.7354,-4.732,-4.742,-4.7462,-4.74,-4.745,-4.7458,-4.7446,-4.7479,-4.7465,-4.7504,-4.7443,-4.7451,-4.7492,-4.748,-4.7554,-4.7469,-4.7516,-4.7518,-4.7516,-4.7706,-4.7744,-4.7879,-4.7641,-4.7644,-4.7646,0,-4.7438,-4.746,-4.7565,-4.756,-4.7576,-4.7622,-4.7645,-4.7678,-4.7685,-4.7673,-4.7688,-4.765,-4.7705,-4.7632,-4.7707,-4.765,-4.7667,-4.7664,-4.7668,-4.7671,-4.759,-4.7714,-4.7921,-4.7942,-4.7674,-4.7672,-4.767,0,-4.7584,-4.7639,-4.7709,-4.7717,-4.7714,-4.7747,-4.7748,-4.775,-4.777,-4.779,-4.7801,-4.7828,-4.7842,-4.7863,-4.7833,-4.7782,-4.7912,-4.7836,-4.7903,-4.7904,-4.7934,-4.7933,-4.8147,-4.7946,-4.7945,-4.7945,-4.7945,0,-4.775,-4.7816,-4.7774,-4.7817,-4.7889,-4.7849,-4.7921,-4.7914,-4.7917,-4.7957,-4.7904,-4.7943,-4.79,-4.7934,-4.7911,-4.7976,-4.7983,-4.7975,-4.7968,-4.798,-4.7981,-4.799,-4.798,-4.795,-4.7949,-4.7948,-4.7947,0,-4.7925,-4.79,-4.7971,-4.7962,-4.7961,-4.8015,-4.8006,-4.8045,-4.8029,-4.808,-4.8089,-4.8064,-4.8101,-4.8073,-4.811,-4.8094,-4.818,-4.816,-4.8178,-4.8173,-4.8241,-4.8235,-4.8469,-4.8497,-4.8278,-4.8281,-4.8282,0,-4.8033,-4.8083,-4.8079,-4.8101,-4.8105,-4.8142,-4.8161,-4.8123,-4.8145,-4.8155,-4.8193,-4.8226,-4.825,-4.8312,-4.8297,-4.8325,-4.8304,-4.8384,-4.8308,-4.8318,-4.8305,-4.8303,-4.8307,-4.84,-4.8403,-4.8405,-4.8406,0,-4.8227,-4.8211,-4.8241,-4.8266,-4.829,-4.8308,-4.8321,-4.8343,-4.8304,-4.8331,-4.8368,-4.8387,-4.8424,-4.8457,-4.8479,-4.8478,-4.8436,-4.843,-4.8447,-4.846,-4.8468,-4.8464,-4.822,-4.8425,-4.8423,-4.8422,-4.8421,-4.842,-4.8372,-4.8412,-4.8415,-4.8449,-4.8455,-4.8469,-4.8504,-4.8492,-4.8523,-4.855,-4.8525,-4.857,-4.8574,-4.8599,-4.8604,-4.8638,-4.8604,-4.8629,-4.8635,-4.8642,-4.8652,-4.8463,-4.8641,-4.8641,-4.864,-4.864,-4.8639,0,-4.8562,-4.8561,-4.8593,-4.8613,-4.8639,-4.8597,-4.8609,-4.8634,-4.8674,-4.8681,-4.8706,-4.8748,-4.878,-4.8766,-4.8794,-4.8824,-4.8805,-4.8832,-4.8829,-4.883,-4.868,-4.8662,-4.8847,-4.8847,-4.8847,-4.8847,-4.8846,-4.8846,-4.8665,-4.8731,-4.8716,-4.8783,-4.8781,-4.8824,-4.8835,-4.8847,-4.8852,-4.8902,-4.8928,-4.8918,-4.8917,-4.8944,-4.897,-4.8965,-4.8978,-4.9012,-4.9001,-4.8861,-4.8841,-4.8821,-4.8804,-4.9015,-4.9016,-4.9147,-4.9149,-4.915]}]]